Home   Weather   Toronto   Past weeks
Flag for Canada

Past Weather in Toronto, Ontario, Canada — Yesterday and Last 2 Weeks

Now
72 °F

Mostly cloudy.


Feels Like: 67 °F
Forecast: 77 / 70 °F
Wind: 8 mph from Southeast

Location: Toronto Pearson International Airport

Current Time: Jul 18, 2019 at 7:47:36 am

Latest Report: Jul 18, 2019 at 7:00 am


Visibility: 15 mi

Pressure: 29.95 "Hg

Humidity: 94%

Dew Point: 70 °F

Location of TorontoLocation

Past Weather in Toronto — Graph

°F

Toronto Temperature Yesterday

Maximum temperature yesterday: 82 °F (at 5:00 pm)
Minimum temperature yesterday: 72 °F (at 11:08 am)
Average temperature yesterday: 76 °F

High & Low Weather Summary for the Past Weeks

 TemperatureHumidityPressure
High88 °F (Jul 5, 6:00 pm)100% (Jul 17, 8:44 am)30.13 "Hg (Jul 17, 8:44 am)
Low59 °F (Jul 8, 5:00 am)26% (Jul 9, 7:34 pm)29.71 "Hg (Jul 11, 2:40 pm)
Average74 °F67%29.95 "Hg
* Reported Jul 3 6:00 am — Jul 18 6:00 am, Toronto. Weather by CustomWeather, © 2019

Note: Actual official high and low records may vary slightly from our data, if they occured in-between our weather recording intervals... More about our weather records

Advertising

Toronto Weather History for the Previous 24 Hours

Scroll right to see more
 ConditionsComfort  
Time TempWeatherWind HumidityBarometerVisibility
6:00 am
Thu, Jul 18
72 °FMore clouds than sun.12 mph94%29.94 "Hg15 mi
5:00 am70 °FPassing clouds.17 mph100%29.93 "Hg10 mi
4:00 am72 °FPassing clouds.14 mph94%29.93 "Hg10 mi
3:00 am72 °FPartly cloudy.15 mph94%29.93 "Hg10 mi
2:00 am72 °FFog.17 mph94%29.93 "Hg6 mi
1:31 am72 °FFog.16 mph94%29.93 "Hg6 mi
1:00 am72 °FPassing clouds.6 mph94%29.92 "Hg10 mi
12:00 am73 °FPartly cloudy.12 mph94%29.91 "Hg15 mi
11:00 pm
Wed, Jul 17
75 °FPassing clouds.12 mph74%29.92 "Hg15 mi
10:00 pm77 °FPartly cloudy.9 mph79%29.90 "Hg15 mi
9:00 pm77 °FPartly cloudy.9 mph83%29.88 "Hg15 mi
8:00 pm77 °FBroken clouds.5 mph83%29.87 "Hg15 mi
7:00 pm79 °FBroken clouds.9 mph84%29.86 "Hg15 mi
6:13 pm79 °FPartly sunny.7 mph84%29.85 "Hg15 mi
6:00 pm79 °FSprinkles. Partly sunny.13 mph79%29.86 "Hg15 mi
5:26 pm81 °FSprinkles. Broken clouds.17 mph74%29.85 "Hg15 mi
5:00 pm82 °FScattered clouds.8 mph74%29.84 "Hg15 mi
4:00 pm81 °FPartly sunny.5 mph79%29.85 "Hg15 mi
3:00 pm81 °FPartly sunny.12 mph74%29.86 "Hg15 mi
2:26 pm79 °FPartly sunny.9 mph84%29.88 "Hg15 mi
2:00 pm79 °FPartly sunny.6 mph79%29.89 "Hg15 mi
1:11 pm77 °FPartly sunny.10 mph89%29.88 "Hg15 mi
12:35 pm77 °FPartly sunny.8 mph89%29.88 "Hg12 mi
12:00 pm75 °FPartly sunny.7 mph94%29.89 "Hg12 mi
11:50 am73 °FBroken clouds.5 mph94%29.89 "Hg15 mi
11:31 am73 °FSprinkles. Partly sunny.3 mph94%29.89 "Hg15 mi
11:08 am72 °FMild.13 mph100%29.89 "Hg6 mi
10:17 am73 °FMild.18 mph94%29.90 "Hg3 mi
10:00 am73 °FMild.9 mph94%29.90 "Hg4 mi
9:35 am73 °FMild.No wind94%29.90 "Hg1 mi
9:00 am73 °FSprinkles. Mostly cloudy.9 mph100%29.89 "Hg10 mi
8:44 am73 °FSprinkles. Mostly cloudy.8 mph100%29.89 "Hg10 mi
8:00 am73 °FSprinkles. Mostly cloudy.8 mph94%29.88 "Hg10 mi
7:48 am73 °FSprinkles. Cloudy.8 mph94%29.88 "Hg6 mi
7:00 am73 °FSprinkles. Mostly cloudy.7 mph94%29.88 "Hg6 mi
Weather by CustomWeather, © 2019

See weather overview